When you browse on this site, cookies collect data to enhance your experience and personalize the content and advertising you see.
Visit our Privacy Policy to learn more. By continuing to use the site, you agree to this use of cookies and data.
  • In Portugal
  • List of Countries
  • For 7 days
  • Water Temperature
  • Weather Map
  • Weather Widgets
  • user-avatar
    Login

    Hourly Weather Burdeki

    Today, 21 August, Wednesday

    Time Temperature Precipitation Wind Pressure Humidity
    00:00 +21°C° 0 mm 2 mps 699 mmHg 52%
    01:00 +21°C° 0 mm 2 mps 699 mmHg 53%
    02:00 +21°C° 0 mm 2 mps 699 mmHg 55%
    03:00 +22°C° 0 mm 1 mps 699 mmHg 56%
    04:00 +22°C° 0 mm 1 mps 699 mmHg 56%
    05:00 +23°C° 0 mm 1 mps 699 mmHg 56%
    06:00 +23°C° 0 mm 1 mps 699 mmHg 56%
    07:00 +26°C° 0 mm 2 mps 699 mmHg 49%
    08:00 +28°C° 0 mm 2 mps 700 mmHg 42%
    09:00 +31°C° 0 mm 2 mps 700 mmHg 35%
    10:00 +31°C° 0 mm 3 mps 700 mmHg 33%
    11:00 +33°C° 0 mm 3 mps 700 mmHg 30%
    12:00 +34°C° 0 mm 4 mps 700 mmHg 27%
    13:00 +34°C° 0 mm 4 mps 699 mmHg 27%
    14:00 +34°C° 0 mm 4 mps 699 mmHg 27%
    15:00 +33°C° 0 mm 4 mps 699 mmHg 27%
    16:00 +32°C° 0 mm 4 mps 698 mmHg 31%
    17:00 +29°C° 0 mm 3 mps 698 mmHg 35%
    18:00 +28°C° 0 mm 2 mps 697 mmHg 39%
    19:00 +26°C° 0 mm 2 mps 697 mmHg 40%
    20:00 +25°C° 0 mm 2 mps 697 mmHg 42%
    21:00 +24°C° 0 mm 2 mps 697 mmHg 43%
    22:00 +24°C° 0 mm 2 mps 697 mmHg 44%
    23:00 +23°C° 0 mm 2 mps 697 mmHg 44%

    Tomorrow, 22 August, Thursday

    Time Temperature Precipitation Wind Pressure Humidity
    00:00 +23°C° 0 mm 2 mps 697 mmHg 45%
    01:00 +23°C° 0 mm 2 mps 697 mmHg 46%
    02:00 +23°C° 0 mm 1 mps 696 mmHg 48%
    03:00 +22°C° 0 mm 1 mps 696 mmHg 50%
    04:00 +23°C° 0 mm 1 mps 696 mmHg 50%
    05:00 +23°C° 0 mm 1 mps 696 mmHg 50%
    06:00 +23°C° 0 mm 1 mps 696 mmHg 50%
    07:00 +26°C° 0 mm 2 mps 697 mmHg 43%
    08:00 +28°C° 0 mm 2 mps 697 mmHg 36%
    09:00 +31°C° 0 mm 3 mps 697 mmHg 29%
    10:00 +33°C° 0 mm 4 mps 697 mmHg 27%
    11:00 +33°C° 0 mm 5 mps 697 mmHg 26%
    12:00 +34°C° 0 mm 6 mps 697 mmHg 24%
    13:00 +34°C° 0 mm 6 mps 697 mmHg 25%
    14:00 +34°C° 0 mm 6 mps 697 mmHg 25%
    15:00 +34°C° 0 mm 6 mps 697 mmHg 26%
    16:00 +32°C° 0 mm 5 mps 696 mmHg 30%
    17:00 +30°C° 0 mm 4 mps 696 mmHg 34%
    18:00 +28°C° 0 mm 2 mps 696 mmHg 38%
    19:00 +26°C° 0 mm 2 mps 696 mmHg 40%
    20:00 +25°C° 0 mm 2 mps 696 mmHg 42%
    21:00 +24°C° 0 mm 2 mps 696 mmHg 44%
    22:00 +23°C° 0 mm 2 mps 696 mmHg 44%
    23:00 +23°C° 0 mm 2 mps 696 mmHg 44%

    Day after tomorrow, 23 August, Friday

    Time Temperature Precipitation Wind Pressure Humidity
    00:00 +23°C° 0 mm 2 mps 696 mmHg 44%
    01:00 +21°C° 0 mm 2 mps 696 mmHg 44%
    02:00 +21°C° 0 mm 2 mps 696 mmHg 43%
    03:00 +21°C° 0 mm 2 mps 696 mmHg 43%
    04:00 +21°C° 0 mm 2 mps 696 mmHg 42%
    05:00 +23°C° 0 mm 2 mps 696 mmHg 42%
    06:00 +23°C° 0 mm 2 mps 696 mmHg 42%
    07:00 +26°C° 0 mm 2 mps 697 mmHg 36%
    08:00 +29°C° 0 mm 3 mps 698 mmHg 31%
    09:00 +31°C° 0 mm 3 mps 698 mmHg 26%
    10:00 +33°C° 0 mm 4 mps 698 mmHg 26%
    11:00 +33°C° 0 mm 5 mps 698 mmHg 26%
    12:00 +34°C° 0 mm 5 mps 698 mmHg 26%
    13:00 +34°C° 0 mm 5 mps 698 mmHg 27%
    14:00 +34°C° 0 mm 5 mps 697 mmHg 28%
    15:00 +34°C° 0 mm 6 mps 697 mmHg 28%
    16:00 +32°C° 0 mm 4 mps 697 mmHg 34%
    17:00 +29°C° 0 mm 3 mps 697 mmHg 40%
    18:00 +27°C° 0 mm 2 mps 696 mmHg 45%
    19:00 +26°C° 0 mm 2 mps 697 mmHg 45%
    20:00 +25°C° 0 mm 2 mps 697 mmHg 45%
    21:00 +24°C° 0 mm 2 mps 697 mmHg 46%
    22:00 +24°C° 0 mm 2 mps 697 mmHg 45%
    23:00 +24°C° 0 mm 2 mps 697 mmHg 44%

    24 August, Saturday

    Time Temperature Precipitation Wind Pressure Humidity
    00:00 +23°C° 0 mm 2 mps 697 mmHg 43%
    01:00 +23°C° 0 mm 2 mps 697 mmHg 43%
    02:00 +23°C° 0 mm 2 mps 697 mmHg 43%
    03:00 +21°C° 0 mm 2 mps 696 mmHg 42%
    04:00 +23°C° 0 mm 2 mps 697 mmHg 43%
    05:00 +23°C° 0 mm 2 mps 697 mmHg 43%
    06:00 +23°C° 0 mm 2 mps 697 mmHg 43%
    07:00 +26°C° 0 mm 2 mps 698 mmHg 38%
    08:00 +28°C° 0 mm 1 mps 698 mmHg 34%
    09:00 +31°C° 0 mm 1 mps 699 mmHg 29%
    10:00 +31°C° 0 mm 2 mps 699 mmHg 29%
    11:00 +33°C° 0 mm 3 mps 699 mmHg 28%
    12:00 +34°C° 0 mm 3 mps 699 mmHg 28%
    13:00 +34°C° 0 mm 4 mps 698 mmHg 30%
    14:00 +33°C° 0 mm 4 mps 698 mmHg 32%
    15:00 +33°C° 0 mm 5 mps 698 mmHg 33%
    16:00 +30°C° 0.1 mm 4 mps 698 mmHg 39%
    17:00 +28°C° 0.1 mm 2 mps 698 mmHg 45%
    18:00 +26°C° 0.1 mm 1 mps 697 mmHg 51%
    19:00 +25°C° 0 mm 1 mps 698 mmHg 51%
    20:00 +24°C° 0 mm 2 mps 698 mmHg 50%
    21:00 +23°C° 0 mm 2 mps 698 mmHg 49%
    22:00 +23°C° 0 mm 2 mps 698 mmHg 46%
    23:00 +23°C° 0 mm 2 mps 698 mmHg 44%

    25 August, Sunday

    Time Temperature Precipitation Wind Pressure Humidity
    00:00 +23°C° 0 mm 2 mps 698 mmHg 42%
    01:00 +21°C° 0 mm 2 mps 698 mmHg 41%
    02:00 +22°C° 0 mm 1 mps 698 mmHg 41%
    03:00 +22°C° 0 mm 1 mps 698 mmHg 40%
    04:00 +22°C° 0 mm 1 mps 698 mmHg 40%
    05:00 +23°C° 0 mm 1 mps 698 mmHg 41%
    06:00 +23°C° 0 mm 1 mps 699 mmHg 41%
    07:00 +25°C° 0 mm 1 mps 699 mmHg 39%
    08:00 +26°C° 0 mm 1 mps 699 mmHg 37%
    09:00 +28°C° 0 mm 1 mps 700 mmHg 34%
    10:00 +29°C° 0 mm 2 mps 699 mmHg 32%
    11:00 +30°C° 0 mm 3 mps 699 mmHg 30%
    12:00 +32°C° 0 mm 4 mps 699 mmHg 27%
    13:00 +30°C° 0 mm 4 mps 699 mmHg 28%
    14:00 +30°C° 0 mm 4 mps 699 mmHg 29%
    15:00 +30°C° 0 mm 4 mps 699 mmHg 29%
    16:00 +28°C° 0 mm 3 mps 698 mmHg 34%
    17:00 +27°C° 0 mm 2 mps 698 mmHg 39%
    18:00 +25°C° 0 mm 2 mps 698 mmHg 44%
    19:00 +24°C° 0 mm 2 mps 698 mmHg 44%
    20:00 +23°C° 0 mm 2 mps 698 mmHg 45%
    21:00 +21°C° 0 mm 2 mps 698 mmHg 45%
    22:00 +21°C° 0 mm 2 mps 698 mmHg 45%
    23:00 +21°C° 0 mm 2 mps 698 mmHg 45%

    26 August, Monday

    Time Temperature Precipitation Wind Pressure Humidity
    00:00 +21°C° 0 mm 2 mps 698 mmHg 45%
    01:00 +20°C° 0 mm 2 mps 698 mmHg 46%
    02:00 +20°C° 0 mm 2 mps 697 mmHg 46%
    03:00 +21°C° 0 mm 1 mps 697 mmHg 47%
    04:00 +21°C° 0 mm 1 mps 697 mmHg 47%
    05:00 +21°C° 0 mm 1 mps 698 mmHg 48%
    06:00 +21°C° 0 mm 1 mps 698 mmHg 48%
    07:00 +24°C° 0 mm 1 mps 698 mmHg 43%
    08:00 +26°C° 0 mm 2 mps 699 mmHg 38%
    09:00 +28°C° 0 mm 2 mps 699 mmHg 33%
    10:00 +29°C° 0 mm 2 mps 699 mmHg 32%
    11:00 +29°C° 0 mm 3 mps 699 mmHg 32%
    12:00 +30°C° 0 mm 3 mps 699 mmHg 32%
    13:00 +30°C° 0 mm 3 mps 699 mmHg 34%
    14:00 +29°C° 0 mm 3 mps 699 mmHg 35%
    15:00 +29°C° 0 mm 3 mps 699 mmHg 37%
    16:00 +27°C° 0.1 mm 2 mps 699 mmHg 42%
    17:00 +26°C° 0.1 mm 1 mps 699 mmHg 46%
    18:00 +25°C° 0.1 mm 1 mps 699 mmHg 51%
    19:00 +24°C° 0.1 mm 1 mps 700 mmHg 54%
    20:00 +23°C° 0.1 mm 1 mps 700 mmHg 57%
    21:00 +22°C° 0.1 mm 1 mps 700 mmHg 60%
    22:00 +22°C° 0 mm 1 mps 700 mmHg 60%
    23:00 +22°C° 0 mm 1 mps 701 mmHg 60%
    Show more